Regional Weather Roundup
Issued by NWS

Home | Current Version | Previous Version | Graphics & Text | Print | Product List | Glossary On
Versions: 1 2 3 4 5 6 7 8 9 10 11 12 13 14 15 16 17 18 19 20 21 22 23 24 25 26 27 28 29 30 31 32 33 34 35 36 37 38 39 40 41 42 43 44 45 46 47 48 49 50
458
ASUS43 KIND 261509
RWRIN

WEATHER ROUNDUP FOR INDIANA
NATIONAL WEATHER SERVICE INDIANAPOLIS IN
1100 AM EDT MON SEP 26 2016

NOTE: "FAIR" INDICATES FEW OR NO CLOUDS BELOW 12,000 FEET WITH NO
SIGNIFICANT WEATHER AND/OR OBSTRUCTIONS TO VISIBILITY.

* - STATION DOES NOT REPORT WEATHER SUCH AS PRECIPITATION OR FOG.

+ - STATION NOT QUALITY CONTROLLED BY THE NATIONAL WEATHER SERVICE.
    USE DATA WITH CAUTION...ESPECIALLY DEWPOINT AND RELATIVE
    HUMIDITY OBSERVATIONS.

INZ001>003-010>013-019-020-261600-
NORTHWEST INDIANA

CITY           SKY/WX    TMP DP  RH WIND       PRES   REMARKS
GARY /AIRPORT/   N/A     64  48  55 W14G26    30.02S
KNOX *+        CLOUDY    59  37  44 W9        30.02S
LA PORTE +     CLOUDY    60  57  88 W9        30.01S
MICHIGAN CITY+ CLOUDY    63  50  63 MISG      30.01S
MONTICELLO +   CLOUDY    60  52  73 W12       30.05R
RENSSELAER +   CLOUDY    61  55  82 W10       30.05S
VALPARAISO     CLOUDY    61  51  70 W12       30.02F

$$

LMZ046-743>745-261600-
SOUTHERN LAKE MICHIGAN

STATION/POSITION TIME  TEMP    WIND        PRES    WAVE
                       AIR SEA DIR/SP/G            HT
                 (UTC) (F)     (DEG/KT/KT) (MB)    (FT)
BURNS HARBOR     1400   61     260/ 16/ 20 1016.6R
MICHIGAN CITY    1400   61     230/ 21/ 23   N/A
5NW MICH CITY    1500   63 66  270/ 17/ 21   N/A     4

$$

INZ004-005-014>016-021>024-261600-
NORTH CENTRAL INDIANA

CITY           SKY/WX    TMP DP  RH WIND       PRES   REMARKS
ELKHART        PTSUNNY  N/A N/A N/A W12       29.99R
GOSHEN         CLOUDY    60  54  80 W10       29.99S
LOGANSPORT +   CLOUDY    59  54  82 W9        30.05R
PERU/GRISSOM   CLOUDY    59  56  88 W12       30.03R
ROCHESTER +    CLOUDY    61  55  82 W8        30.03R
SOUTH BEND     CLOUDY    60  54  80 W14       30.00S
WARSAW +       CLOUDY    59  52  77 W14       30.01S

$$

INZ006>009-017-018-025>027-261600-
NORTHEAST INDIANA

CITY           SKY/WX    TMP DP  RH WIND       PRES   REMARKS
ANGOLA *+        N/A     61  52  72 W9        29.97S
AUBURN +       MOSUNNY   61  54  77 W12       30.01R
FORT WAYNE     CLOUDY    60  55  83 W10G20    30.00S
HUNTINGTON +   PTSUNNY   59  57  94 W13       30.02R
KENDALLVILLE + CLOUDY    59  56  89 W9G17     29.99R

$$

INZ028-029-035-036-043>045-051>053-261600-
WEST CENTRAL INDIANA

CITY           SKY/WX    TMP DP  RH WIND       PRES   REMARKS
CRAWFORDSVL +  CLOUDY    57  57 100 W5        30.09R
GREENCASTLE +  CLOUDY    59  57  94 W5        30.10R
LAFAYETTE      PTSUNNY   59  56  89 W14G21    30.07R
TERRE HAUTE    LGT RAIN  61  55  81 NW6       30.11R

$$

INZ030>032-037>040-046>048-054>057-064-065-261600-
CENTRAL INDIANA

CITY           SKY/WX    TMP DP  RH WIND       PRES   REMARKS
ANDERSON       PTSUNNY   59  55  88 W12       30.07R
COLUMBUS       CLOUDY    59  59 100 W8        30.11R
FISHERS *+     PTSUNNY   59  57  94 W8        30.08R
FRANKFORT +    CLOUDY    61  57  86 W9        30.08
GREENWOOD *+   CLOUDY    61  59  94 W5        30.08R
INDIANAPOLIS   PTSUNNY   61  55  81 W10       30.08R
-EAGLE CREEK   PTSUNNY   61  54  77 W10       30.08R
MARION +       CLOUDY    58  57  97 W12G20    30.04S
MT COMFORT *+  CLOUDY    59  55  88 W7        30.07R
SHELBYVILLE    CLOUDY    62  56  80 W8        30.08R
ZIONSVILLE +   CLOUDY    58  55  88 W7        30.08R

$$

INZ033-034-041-042-049-050-058-059-261600-
EAST CENTRAL INDIANA

CITY           SKY/WX    TMP DP  RH WIND       PRES   REMARKS
MUNCIE         CLOUDY    61  56  83 W8        30.05R

$$

INZ060-061-067>069-081>083-085>088-261600-
SOUTHWEST INDIANA

CITY           SKY/WX    TMP DP  RH WIND       PRES   REMARKS
EVANSVILLE     CLOUDY    63  58  83 W3        30.15R
HUNTINGBURG *+   N/A     61  55  82 NW9       30.13R
WASHINGTON +   PTSUNNY   60  60 100 MISG      30.13R

$$

INZ062-063-066-070>080-084-089>092-261600-
SOUTH CENTRAL AND SOUTHEAST INDIANA

CITY           SKY/WX    TMP DP  RH WIND       PRES   REMARKS
BLOOMINGTON    MOSUNNY   61  56  83 W7        30.11S
MADISON *+     CLOUDY    61  59  94 W6        30.12R
NORTH VERNON + LGT RAIN N/A N/A N/A W7        30.10R
SEYMOUR +      CLOUDY    63  59  88 W9G16     30.11R

$$





USA.gov is the U.S. government's official web portal to all federal, state and local government web resources and services.